Location: Home
(42.5358°N, 72.7383°W)
Time: 18:17:52
(UTC-05:00)

Tiros 1 - Pass Details

Date: 07 December 2021
Orbit: 629 x 664 km, 48.4° (Epoch: 18 January)

Event Time Altitude Azimuth Distance (km) Brightness Sun altitude
Rises 16:31:11 0° 222° (SW) 2,903 12.2 -3.0°
Reaches altitude 10° 16:33:33 10° 217° (SW) 2,000 11.0 -3.4°
Maximum altitude 16:37:57 46° 144° (SE) 847 7.7 -4.1°
Drops below altitude 10° 16:42:24 10° 71° (ENE) 2,023 9.0 -4.8°
Enters shadow 16:43:20 - 68° (ENE) 2,372 9.4 -5.0°
Sets 16:44:48 0° 66° (ENE) 2,940 - -5.2°
